Other Surface Observations
Issued by NWS

Home | Current Version | Previous Version | Text Only | Print | Product List | Glossary On
Versions: 1 2 3 4 5 6 7 8 9 10 11 12 13 14 15 16 17 18 19 20 21 22 23 24 25 26 27 28 29 30 31 32 33 34 35 36 37 38 39 40 41 42 43 44 45 46 47 48 49 50
000
SXUS52 KTAE 231118
OSOTAE
OSOTAE
North Florida/South Alabama/Southwest Georgia Weather Roundup
National Weather Service Tallahassee Florida
700 AM EDT WED MAY 23 2018

Note: "fair" indicates few or no clouds below 12,000 feet with no
significant weather and/or obstructions to visibility.

!FLZ017-115-028-034-025-231200
...North Florida...

CITY           SKY/WX    TMP DP  RH WIND       PRES   REMARKS
TALLAHASSEE    FAIR      72  70  93 CALM      30.07R
APALACHICOLA   MOCLDY    78  75  90 S8        30.05R
PERRY          FAIR      71  69  94 SE3       30.09R
CROSS CITY     CLOUDY    70 N/A N/A SE3       30.09R
JACKSONVILLE   FAIR      68  67  96 CALM      30.10R
$$

!FLZ112-006-005-002-011-231200
...Florida Panhandle...

CITY           SKY/WX    TMP DP  RH WIND       PRES   REMARKS
MARIANNA       CLOUDY    72  72 100 S6        30.06S FOG
BONIFAY        FOG       69  68  96 CALM      30.07R VSB 1/4
PANAMA CITY NW MOCLDY    73  71  93 E3        30.05R
TYNDALL AFB    FAIR      75  72  89 S7        30.05R
TYND DRONE APT FAIR      74  72  92 S6        30.06R
DE FUNIAK SPR  FOG       71  70  99 CALM      30.07R VSB 1/2
EGLIN AFB      MOCLDY    74  70  89 CALM      30.04R
DESTIN         FAIR      77  72  84 S6        30.04R
HURLBURT       PTCLDY    74  71  92 CALM      30.03R
CRESTVIEW      MOCLDY    68  66  93 CALM      30.06R FOG
PENSACOLA      FAIR      75  71  87 NE3       30.04R
$$

!ALZ063-066-231200
...South Alabama...

CITY           SKY/WX    TMP DP  RH WIND       PRES   REMARKS
DOTHAN         CLOUDY    73  71  93 S5        30.10R FOG
OZARK CAIRNS   FOG       73  72  94 S5        30.07R VSB 1/4
FT RUCKER HELI CLOUDY    73  72  98 CALM      30.06R
RUCKER HELI 3  CLOUDY    73  72  98 S3        30.06
RUCKER HELI 2  FOG       72  72 100 SW3       30.06R VSB 7/8
FLORALA APT    FAIR      69  67  93 S3        30.08R
ANDALUSIA      FOG       74  70  87 CALM      30.06R VSB 3/4
TROY           CLOUDY    72  71  97 CALM      30.07R
EUFALA         CLOUDY    75  73  93 S5        30.05R
MOBILE         MOCLDY    72  69  90 CALM      30.04R
$$

!GAZ120>161-231200
...Southwest and South Central Georgia...

CITY           SKY/WX    TMP DP  RH WIND       PRES   REMARKS
THOMASVILLE    FOG      N/A N/A N/A CALM      30.10R VSB 1/2
BAINBRIDGE     CLOUDY    73  73 100 S5        30.08R
MOODY AFB      FAIR      69  68  98 S5        30.09R
VALDOSTA       FAIR      69  69 100 S5        30.09R
MOULTRIE       MOCLDY    70  68  94 CALM      30.10R FOG
BLAKELY        CLOUDY    72  70  94 S5        30.08R
ALBANY         CLOUDY    73  72  96 S6        30.09R
TIFTON         CLOUDY   N/A N/A N/A S5        30.09R HAZE
FITZGERALD     CLOUDY    71  71 100 S3        30.11R
CORDELE        CLOUDY    72  71  96 SW8       30.09R
AMERICUS       CLOUDY    72  66  83 SW7       30.08R HAZE
HOMERVILLE     FAIR      68  68 100 SE3       30.11R
$$

!GMZ750-755-770-775-231200
...Coastal and Buoy Obs...

STATION/POSITION TIME  TEMP    WIND        PRES    VSBY  WAVE
                       AIR SEA DIR/SP/G                  HT/PER
                 (UTC) (F)     (DEG/KT/KT) (MB)    (MI)  (FT/S)
KEATON BEACH     1100   71     100/  7/  8 1018.9R
CEDAR KEY        1100   75     150/  9/ 10 1019.3R
C TOWER          1100   76     160/  8/  8 1018.2R
APALACHICOLA BUO NOT AVBL
PANAMA CITY BUOY 1050   79 80  140/ 10/ 12 1016.9R         3/ 6
MOBILE BUOY      1100      83  160/  8/ 12 1016.7
ORANGE BCH AL BU 1100   80     170/  4/  8 1017.0
$$




USA.gov is the U.S. government's official web portal to all federal, state and local government web resources and services.